{"data":{"norad_id":59945,"epoch":"2026-09-21T13:10:16.056480Z","epoch_age_seconds":86926,"freshness":"FRESH","line1":"1 59945U 24107A   26264.54879695 -.00001371  00000+0 -64591-5 0  9992","line2":"2 59945  53.1596   6.0619 0001477  79.4374 280.6810 15.69701564132902","mean_motion":15.69701564,"eccentricity":0.0001477,"inclination_deg":53.1596,"raan_deg":6.0619,"arg_perigee_deg":79.4374,"mean_anomaly_deg":280.681,"bstar":-6.4591e-6,"rev_number":13290,"period_min":91.737183234405,"perigee_km":358.75570508925,"apogee_km":360.74607717229,"semimajor_km":6737.8878911308,"source":"CELESTRAK","updated_at":"2026-09-22T09:00:49.115634Z"}}